Zurück zum Katalog

FENGYUN 1C DEB

AktivSSO
NORAD 35123·DEBRIS·🇨🇳 China

Gestartet May 10, 1999 von Taiyuan Satellite Launch Center

Loading…

Nächste Überflüge (nächste 24 Stunden)

TLE

AlterndSource: Space-Track

Epoche: Sep 8, 2026, 11:50 UTC

1 35123U 99025DLB 26251.49371319  .00000549  00000-0  25295-3 0  9996
2 35123  99.1201  89.5477 0049844  24.5868 335.7671 14.24757767649146

Verfolge FENGYUN 1C DEB in Echtzeit mit AllMySat

Download on the App Store